Theta_e
328 327 326 326 326 326 326 327 327 327 326 327 328 328 328 327 327 328 327 327 327 327 328 329 328 329 327 327 328 328 328 328 328 329 329 328 328 327 325 326 325 325 325 325 324 327 328 328 328 328 328 325 322 323 321 322 323 324 323 321 318 319 317 315 311 312 315 318 317 313 313 316 312 313 312 314 317 317 313 317 317 317 316 316 314
326 325 326 327 326 326 326 327 326 326 326 327 327 326 327 327 327 326 327 327 327 326 327 328 328 327 326 326 326 325 325 325 325 327 327 326 325 324 324 322 322 321 323 322 323 323 326 327 325 326 327 327 324 320 320 319 319 319 319 320 316 316 319 312 311 310 311 315 314 315 313 315 311 313 314 314 315 316 313 315 317 316 315 317 316
325 325 325 326 326 326 325 324 323 324 325 325 326 325 326 326 325 327 327 325 326 326 326 326 326 326 325 325 324 324 324 323 324 325 325 325 323 323 323 322 321 321 322 321 319 320 321 323 323 323 325 327 325 322 321 319 318 318 318 318 317 316 314 314 313 311 312 311 315 312 312 313 314 312 312 315 316 315 312 313 313 314 314 317 315
325 324 324 324 324 324 323 323 323 324 325 325 326 326 325 325 325 326 325 325 324 324 325 324 324 325 324 322 323 322 321 322 321 321 321 323 322 321 321 322 322 322 322 320 319 320 322 322 322 321 323 326 325 323 321 321 319 318 318 318 319 316 316 317 316 314 313 311 312 311 312 313 312 314 313 314 315 312 311 312 311 311 313 312 313
324 324 324 323 324 323 323 323 323 324 325 325 326 325 325 324 325 324 324 325 323 322 321 322 323 323 324 322 320 321 321 321 320 320 322 324 324 323 321 321 322 321 322 322 320 322 321 323 321 321 322 324 325 323 321 321 318 319 318 317 316 317 316 315 314 314 314 312 313 314 315 312 313 313 312 310 311 311 312 311 312 312 313 313 311
324 323 324 323 323 323 323 322 322 323 323 324 324 324 324 324 324 324 323 322 323 322 320 320 320 320 321 320 320 320 320 321 320 320 320 322 323 324 323 322 321 320 321 321 320 321 322 321 321 321 322 323 324 324 322 321 319 319 318 317 316 317 316 316 315 315 313 312 314 315 314 311 311 312 312 312 311 309 310 312 312 313 313 312 311
324 323 323 322 322 322 322 321 321 321 321 321 322 321 322 323 322 321 322 322 321 320 320 319 320 319 318 319 319 319 319 318 320 320 320 320 322 322 322 322 322 323 322 320 320 321 321 321 322 322 322 323 324 324 323 322 322 320 320 321 318 317 317 316 313 313 313 313 313 314 314 314 315 312 312 312 312 311 311 312 311 311 314 313 311
320 320 320 320 321 321 322 322 321 319 319 319 320 320 320 320 320 320 320 321 321 319 319 319 319 318 319 318 319 320 319 318 318 319 318 320 321 322 323 323 322 322 322 321 321 320 321 322 322 322 322 323 324 324 324 323 322 322 322 321 320 319 318 317 316 313 313 313 311 311 312 314 312 315 313 311 310 310 310 311 311 311 312 313 313
318 317 317 316 317 317 318 319 320 320 319 319 319 320 320 320 319 319 320 320 320 319 320 319 318 317 317 319 318 319 319 320 318 319 319 319 321 321 321 320 321 321 321 321 321 320 320 322 322 322 322 317 309 313 315 315 323 322 322 321 320 319 319 317 316 314 314 313 312 315 313 312 312 313 311 311 310 310 314 314 313 314 313 311 310
318 317 316 315 315 316 317 317 319 319 319 318 318 320 320 321 322 321 320 320 319 319 319 319 318 317 316 316 318 319 318 319 311 304 306 319 320 319 322 322 320 320 320 321 322 321 321 321 322 317 313 311 306 302 301 304 309 318 324 322 320 320 319 318 316 315 315 313 312 313 312 312 313 315 314 314 315 318 315 314 312 313 312 311 310
311 312 312 314 316 316 317 316 315 314 316 316 316 317 318 319 320 320 320 319 318 317 318 319 319 319 318 317 316 316 316 312 298 299 300 301 315 320 320 320 321 321 321 320 320 321 323 322 324 319 318 314 313 299 300 299 300 301 304 310 315 321 320 317 317 317 314 313 313 315 313 314 316 318 316 316 318 315 314 314 313 312 310 308 306
304 304 306 307 308 308 307 306 306 306 307 307 308 309 310 311 312 314 316 318 319 320 320 320 319 319 318 318 319 318 312 296 295 296 296 298 306 318 319 319 319 320 320 320 320 322 322 323 324 325 324 325 324 320 308 299 298 298 298 299 300 302 306 319 319 318 317 315 316 316 316 315 316 319 316 316 315 315 315 315 314 312 310 309 309
301 302 304 304 304 304 304 303 302 302 302 304 305 305 306 306 308 309 310 312 314 315 318 320 321 322 321 318 315 312 307 293 293 294 295 295 296 307 318 319 318 318 319 319 319 320 322 321 322 322 320 315 318 323 324 320 300 297 298 297 298 297 296 297 299 322 322 319 317 318 318 318 318 319 320 318 319 316 315 313 314 313 312 311 311
300 301 302 302 302 302 302 301 301 302 303 303 303 303 304 304 306 307 307 308 309 309 311 312 316 317 315 312 310 307 304 295 293 293 294 294 293 302 318 318 319 318 319 319 320 320 320 320 319 320 322 321 323 323 323 324 322 318 317 318 319 310 297 296 297 294 308 320 319 318 321 322 317 320 322 320 316 315 315 313 315 314 313 312 314
299 299 300 301 302 301 302 301 301 301 302 302 302 301 302 303 303 303 304 305 305 306 307 308 309 311 312 310 308 306 301 292 292 292 293 295 297 305 319 318 319 318 318 319 319 320 320 320 320 320 321 321 322 320 321 320 321 321 321 322 323 322 320 318 317 318 318 319 321 322 324 321 320 319 319 318 318 318 319 318 318 316 313 307 307
298 299 299 299 300 300 300 300 300 301 301 301 301 301 301 301 302 302 303 303 304 304 304 305 306 306 307 309 307 305 302 292 292 292 293 293 297 318 320 321 321 320 320 319 319 319 319 320 320 320 321 321 312 301 308 320 320 319 319 320 321 320 318 304 298 301 314 320 321 322 321 321 310 320 319 318 317 314 309 309 309 309 306 306 304
298 298 298 299 299 300 300 300 299 300 300 300 300 301 301 301 301 302 302 302 302 302 302 302 303 304 304 305 306 305 303 295 291 292 292 292 304 315 317 316 318 319 319 319 320 320 320 320 320 320 321 322 308 296 296 303 319 318 318 319 320 319 317 312 296 291 292 293 296 299 301 299 297 297 297 299 312 313 311 309 308 308 306 306 304
299 299 299 299 300 300 300 300 299 298 299 299 299 300 301 301 301 303 301 301 301 301 301 301 302 302 302 302 303 304 303 296 291 291 292 291 299 310 311 312 314 315 316 318 318 319 317 309 312 319 321 322 301 298 293 304 318 319 319 318 318 318 318 314 310 307 292 292 292 292 292 293 293 293 294 295 297 303 311 308 310 309 305 307 304
298 299 299 300 300 300 300 301 300 299 298 299 300 300 300 300 301 302 302 302 301 300 299 299 299 299 299 299 298 301 302 299 292 291 291 291 299 308 308 309 310 312 312 313 316 316 318 313 306 309 311 308 293 298 294 302 318 319 319 319 317 318 319 317 312 312 310 309 307 305 304 299 306 310 307 293 295 301 312 313 313 307 306 307 306
297 297 298 298 298 298 298 298 298 298 297 297 298 298 298 299 301 301 301 300 299 299 298 298 297 297 297 298 298 299 300 301 297 290 291 292 292 304 307 306 307 307 309 309 310 313 314 317 310 296 296 294 294 292 294 294 313 319 320 318 317 317 321 319 314 314 313 311 314 311 312 311 310 309 308 303 302 305 310 313 312 310 309 307 307
297 297 297 296 296 296 296 296 296 296 296 296 296 296 297 298 300 300 298 298 298 297 297 297 297 297 297 298 298 298 299 299 299 291 291 291 291 295 305 304 304 304 305 306 307 308 309 310 313 301 294 293 293 293 293 292 295 313 317 318 318 318 314 319 314 301 313 312 313 311 310 307 307 307 306 306 305 305 305 308 310 310 309 307 305
297 297 297 297 297 296 296 297 297 297 297 297 296 296 297 298 298 299 299 299 299 297 296 296 296 297 297 296 297 297 297 296 297 294 291 291 290 291 300 301 298 302 304 304 305 306 307 308 310 301 292 292 292 292 292 293 292 305 312 302 301 300 314 316 317 311 310 311 310 307 307 305 305 305 304 304 304 304 306 306 307 307 308 308 306
296 296 296 296 297 297 297 297 297 297 297 297 297 296 297 298 298 299 299 299 298 298 298 298 298 298 298 298 297 297 297 297 293 295 292 290 290 291 290 294 290 300 302 302 303 304 306 307 307 296 292 291 291 291 292 292 293 302 297 296 296 295 298 312 313 311 309 309 308 307 306 306 305 303 303 303 303 304 303 303 302 302 301 301 301
296 295 295 294 295 296 297 297 298 298 297 297 297 297 297 298 298 298 298 298 297 298 297 298 297 297 296 297 297 297 297 297 295 292 293 290 290 290 290 289 289 297 298 301 302 303 304 304 300 292 291 291 291 291 291 291 299 296 293 293 293 294 306 310 308 308 305 304 304 305 305 304 304 303 302 302 301 302 301 301 301 301 301 300 299
296 296 296 296 296 297 297 297 297 297 297 297 296 296 296 297 297 297 298 297 297 297 297 297 297 297 296 297 297 297 297 297 298 295 291 291 290 290 290 289 289 289 296 300 301 301 295 290 289 290 291 291 290 291 293 293 291 291 292 292 294 305 307 309 310 310 307 305 305 306 305 303 303 303 303 301 300 299 298 298 299 300 300 300 300
296 296 296 296 296 296 296 296 296 296 296 297 296 296 295 295 295 296 296 296 297 297 296 296 295 296 296 296 296 296 297 297 298 299 296 295 294 292 291 290 291 291 292 295 291 289 288 289 290 290 292 296 302 303 302 302 295 292 291 292 302 305 305 306 307 306 305 306 305 305 306 304 303 303 301 300 299 297 296 296 296 296 298 297 297
295 295 295 295 296 296 295 295 296 296 296 296 296 296 295 295 295 295 295 295 295 295 295 295 295 295 295 295 295 296 297 297 298 298 299 299 298 298 298 298 294 294 297 301 296 298 297 295 295 292 292 291 290 292 294 296 300 302 303 302 303 305 306 306 306 306 305 306 305 306 302 301 300 297 298 297 297 296 297 295 295 295 297 298 296
295 295 295 295 295 295 295 291 293 295 295 295 295 295 295 295 295 295 295 295 294 294 294 294 294 294 294 295 295 295 296 297 298 297 297 296 296 296 297 298 299 299 299 300 298 297 298 294 295 301 302 303 303 304 304 304 302 301 304 304 304 303 302 299 300 306 306 307 306 302 298 296 295 296 296 295 294 294 295 295 294 293 294 295 294
296 296 296 296 295 295 296 295 295 295 295 295 295 295 294 295 295 295 296 296 296 295 295 294 295 296 295 295 295 295 295 296 297 291 292 289 290 294 295 296 297 297 295 290 294 296 297 298 298 300 300 298 298 300 301 302 300 301 301 302 302 302 302 302 301 302 304 303 302 299 296 295 295 296 296 294 293 294 295 295 295 294 294 295 293
296 296 296 296 296 295 295 295 295 295 295 294 295 295 289 288 291 294 295 291 289 288 289 294 295 296 296 296 297 294 295 296 290 288 288 288 288 288 288 288 288 291 290 288 290 292 293 295 296 297 297 298 298 297 296 297 297 297 297 295 298 300 300 299 300 301 299 300 300 294 294 292 293 293 294 293 293 293 294 292 295 295 293 293 291
295 295 295 295 294 295 295 294 294 294 294 294 295 292 295 295 288 287 288 289 289 288 288 288 288 288 292 295 295 290 289 288 288 288 288 288 288 288 288 288 288 288 288 289 292 293 294 295 296 297 297 298 297 297 296 296 296 296 296 297 297 297 296 298 299 295 293 292 292 292 292 291 291 292 292 292 291 291 291 292 293 293 293 293 292
295 295 296 295 294 295 294 294 294 294 294 294 294 294 294 294 295 290 288 289 288 288 288 288 288 288 288 289 292 296 291 289 288 288 288 288 288 288 288 288 288 288 287 287 290 292 294 294 295 295 296 295 296 296 296 296 296 296 293 294 294 295 293 296 297 296 292 292 291 290 290 291 292 290 290 289 289 290 291 290 290 290 291 292 292
296 296 295 295 294 293 293 294 294 294 294 294 294 295 294 294 294 295 294 289 288 288 288 288 288 288 288 288 288 288 288 289 288 288 288 288 288 288 288 287 287 286 286 290 291 292 294 294 294 295 296 294 296 296 296 298 298 297 296 294 293 294 295 295 292 296 292 291 291 290 290 290 290 289 288 288 288 289 289 289 290 291 290 289 288
296 296 296 296 295 294 294 294 294 294 294 295 294 294 294 294 294 294 294 295 294 291 289 289 288 288 289 288 288 288 288 288 288 288 287 288 287 287 287 291 288 286 289 293 294 293 294 294 295 296 296 296 296 297 297 297 297 297 296 296 295 294 293 294 294 292 291 291 291 290 290 290 290 289 289 289 290 290 290 289 290 289 289 289 289
296 290 287 291 295 294 294 294 295 295 295 295 294 294 294 294 293 293 293 292 292 292 293 294 291 289 290 289 289 287 287 288 288 288 287 287 288 287 286 296 294 295 295 298 297 296 294 294 294 295 296 295 295 295 296 297 297 296 295 293 295 293 291 290 289 290 289 289 289 289 289 289 289 289 289 289 289 290 290 290 290 289 289 288 288
296 296 296 295 295 295 295 295 295 295 294 294 294 293 293 293 293 294 293 293 292 292 292 293 294 291 288 288 288 288 287 288 287 287 287 287 287 288 294 294 294 294 293 297 297 296 297 296 295 295 295 296 296 295 295 295 296 297 298 295 292 292 291 290 289 289 289 289 289 288 288 288 288 288 288 288 288 288 288 288 288 288 288 288 288
297 296 296 296 295 295 295 295 295 294 290 291 293 294 293 294 293 294 293 293 292 292 293 293 294 294 292 294 291 289 288 288 288 288 288 288 288 294 296 295 294 295 294 295 295 296 296 297 297 296 296 295 295 295 293 295 296 297 293 293 294 293 292 290 290 289 289 289 290 289 289 288 288 287 287 287 287 288 288 287 288 287 287 287 287
297 296 297 296 296 295 295 295 294 290 292 293 294 294 293 294 294 293 293 290 291 291 291 292 290 291 290 292 293 292 292 291 290 290 292 292 293 293 293 293 293 293 293 294 294 294 295 295 296 295 295 296 296 296 294 293 294 293 291 291 291 290 289 289 288 288 288 288 288 288 288 289 289 289 289 289 288 287 287 287 288 288 288 287 288
297 288 285 286 290 295 295 294 293 294 294 294 294 293 291 292 293 293 293 292 291 291 291 292 292 290 290 290 291 292 293 294 293 293 293 294 293 294 293 293 293 292 292 292 293 292 293 293 294 294 295 295 295 295 294 291 293 291 291 291 290 290 289 289 288 287 288 288 288 289 289 289 289 289 288 287 287 287 287 287 288 288 287 287 288
297 297 291 286 293 293 293 292 293 294 292 293 293 293 293 292 291 291 292 291 290 290 291 290 290 290 289 288 288 289 290 291 292 292 292 292 292 292 293 291 291 291 291 291 292 292 292 292 293 293 293 293 293 293 293 291 290 291 291 291 290 289 289 288 287 288 287 288 288 288 288 288 288 288 288 288 288 288 288 288 288 288 288 288 288
297 296 291 290 289 294 293 293 293 293 293 293 293 294 292 292 292 290 291 290 289 289 290 290 290 289 288 286 285 286 290 290 291 291 290 290 290 290 290 290 290 290 290 290 290 291 291 291 291 291 290 290 291 290 291 289 291 291 290 290 290 289 289 288 288 287 287 287 287 286 286 287 287 288 288 288 288 288 288 288 288 289 288 288 288
297 296 295 294 294 294 294 292 293 293 293 293 294 293 292 291 292 292 289 288 288 289 290 290 289 288 287 285 285 285 290 291 290 291 291 291 290 290 289 290 291 290 289 289 290 288 289 289 289 290 289 288 289 289 289 290 290 290 289 289 289 289 288 288 287 287 287 287 287 287 287 288 288 288 288 287 288 288 288 288 289 289 289 288 288
295 296 295 295 294 293 293 293 293 294 293 293 293 290 290 292 292 290 288 287 287 289 289 288 288 288 288 286 286 286 291 290 288 290 289 288 288 289 289 288 288 289 289 289 290 290 290 290 289 289 289 288 289 289 290 290 290 290 289 289 288 288 287 286 286 286 286 287 286 286 286 287 287 288 287 287 288 288 289 288 288 289 288 288 288
295 294 293 293 293 293 292 293 293 293 292 290 289 291 291 292 292 291 289 289 288 288 288 288 288 287 288 288 289 289 290 289 289 289 288 288 288 288 288 287 287 287 287 287 287 289 289 289 289 289 288 289 290 289 290 290 290 290 289 289 288 287 287 287 286 286 287 287 287 286 287 287 287 288 287 287 288 288 288 288 288 288 288 288 288
296 295 294 294 293 293 293 292 292 292 291 291 292 293 291 293 292 290 289 289 288 289 289 288 288 287 287 288 288 288 288 287 287 287 287 287 287 287 287 286 286 286 286 286 286 286 287 287 287 287 286 287 287 287 287 287 288 288 289 289 288 288 288 287 288 288 288 287 287 287 287 287 288 288 288 289 289 289 289 288 288 287 288 288 288
296 294 293 293 292 291 291 292 290 292 292 292 292 292 293 292 291 289 288 289 289 289 290 289 288 287 287 288 288 287 287 287 286 287 287 287 287 287 286 286 286 285 285 285 285 285 285 285 286 286 286 286 286 287 287 288 288 288 288 287 286 286 286 287 287 287 287 287 288 288 288 288 288 288 287 289 289 289 289 289 289 289 288 288 288
296 295 293 293 292 291 291 292 292 292 292 291 291 292 291 291 290 288 287 289 289 290 290 290 290 289 288 288 288 287 287 286 286 286 286 286 286 286 286 286 285 285 284 284 284 284 284 285 286 286 286 287 287 287 288 288 288 287 287 287 287 287 287 287 287 288 288 288 288 289 289 289 289 289 288 289 289 289 289 289 289 288 288 288 288
295 294 294 292 292 292 292 292 291 288 292 291 291 291 290 290 289 289 289 290 291 291 290 290 291 290 290 289 288 287 287 287 287 287 287 287 287 287 287 286 285 285 284 283 283 283 283 283 284 284 285 285 285 286 286 287 287 287 287 286 286 285 284 284 287 287 288 288 289 289 289 290 290 289 289 289 289 289 289 289 289 289 289 288 288
295 294 294 294 292 292 292 292 291 292 291 292 291 291 290 291 290 290 290 290 290 291 292 291 290 289 289 288 288 288 288 287 288 287 287 287 287 287 286 285 284 284 284 283 283 283 283 283 283 283 283 284 284 285 285 285 286 286 286 286 283 281 281 283 286 287 285 287 289 289 289 289 288 288 288 289 289 289 289 289 289 288 289 288 288
294 294 294 293 292 292 292 292 292 292 292 293 292 292 291 291 290 290 291 290 290 291 292 291 290 289 288 288 288 289 289 288 288 288 287 287 287 287 286 285 284 283 284 283 283 283 283 283 283 283 283 283 283 284 284 285 285 285 285 283 280 281 281 281 282 282 287 289 289 290 290 289 289 289 289 289 288 288 288 288 288 288 288 288 288
293 293 294 293 293 292 292 293 292 292 292 292 292 292 291 290 290 291 291 291 290 291 291 291 291 290 290 290 289 290 290 289 289 289 288 288 287 286 285 285 284 284 283 283 283 283 283 283 283 283 283 283 283 283 284 285 284 282 280 280 280 280 281 283 284 282 282 286 288 289 289 289 289 288 288 289 289 289 288 288 288 288 289 289 288
Wind_Speed
7 7 8 9 10 10 9 8 7 7 7 7 7 7 6 6 6 5 5 5 5 5 5 5 4 4 5 4 4 4 4 4 3 3 3 3 3 3 4 4 4 3 3 4 3 3 4 5 5 4 5 5 5 5 5 6 5 4 4 5 4 3 4 4 3 5 5 1 2 5 6 7 8 8 8 7 6 5 5 4 4 4 4 3 4
6 7 7 8 9 9 9 8 8 7 8 8 7 7 7 6 6 6 6 5 6 6 6 4 4 4 4 4 4 4 4 5 4 4 4 4 3 2 3 4 4 4 3 4 4 3 4 5 5 5 5 6 6 7 6 6 7 6 6 6 6 5 5 5 3 4 7 4 5 4 5 6 7 9 8 8 8 6 8 6 5 5 4 4 4
7 6 5 6 7 7 7 7 8 9 9 7 7 7 7 6 6 7 6 5 4 5 5 5 5 4 4 4 4 3 4 4 3 4 4 4 4 3 3 4 4 5 5 4 4 4 4 4 5 5 4 5 6 5 5 6 7 8 8 7 7 6 6 5 4 4 6 7 6 7 7 7 7 8 10 8 7 7 8 7 6 4 4 4 4
8 8 8 9 8 7 7 8 10 9 9 7 8 7 7 6 6 6 6 6 6 4 4 5 5 4 5 4 4 4 4 3 4 3 3 3 4 4 4 4 4 3 4 4 4 4 4 4 4 5 5 6 6 5 5 5 6 6 7 6 6 6 5 4 4 2 4 5 8 7 8 7 8 5 6 6 5 5 6 4 3 4 3 3 3
10 10 10 10 9 9 9 9 9 9 8 7 8 7 7 7 6 7 7 6 6 6 4 4 5 5 4 5 5 4 4 4 4 4 3 1 2 3 4 4 4 3 2 2 3 2 3 2 4 4 5 5 5 5 5 7 6 6 6 6 6 5 4 5 5 4 3 5 5 5 4 7 6 6 6 7 6 5 4 4 3 3 3 2 2
9 9 9 9 8 9 8 7 8 8 7 6 7 6 6 7 7 6 7 7 6 5 6 4 4 5 4 4 4 4 4 3 3 4 4 3 2 2 2 3 3 3 3 2 2 2 3 3 4 4 5 6 6 6 6 8 6 6 7 6 6 4 5 5 5 4 5 5 5 4 5 6 6 5 7 7 7 7 6 4 3 3 4 5 5
5 3 6 8 8 8 8 8 8 7 7 6 5 5 6 6 7 6 5 6 6 6 5 5 3 4 4 3 3 3 3 2 2 3 4 4 4 3 3 3 3 2 2 3 2 2 2 3 4 4 4 4 4 5 6 6 5 7 6 5 5 4 5 5 6 6 6 6 5 4 5 6 5 6 6 5 6 7 7 6 5 5 4 5 6
7 7 9 10 10 9 7 7 7 8 8 8 6 6 6 5 5 4 5 6 6 7 6 6 4 3 4 4 3 3 3 3 2 3 3 4 4 4 4 4 3 3 3 2 2 2 1 2 2 3 2 3 3 4 5 5 4 5 4 3 4 5 5 5 5 6 7 7 7 6 5 5 5 3 3 5 6 7 8 7 7 6 6 5 5
8 8 10 9 9 8 7 7 7 6 7 9 7 7 7 6 5 5 4 4 3 4 5 6 5 5 3 3 4 3 3 3 3 3 4 4 4 5 5 4 4 4 3 3 2 2 2 1 2 3 3 3 3 3 2 2 4 4 3 4 4 4 4 4 5 5 5 6 6 4 4 5 6 6 6 7 9 9 7 7 6 5 6 6 5
9 9 10 9 7 7 8 8 6 6 6 8 7 6 5 5 5 5 4 4 4 4 4 4 4 4 3 2 2 2 3 3 4 5 5 2 3 3 3 4 4 5 4 4 3 3 3 3 2 4 5 6 7 7 7 5 4 3 2 5 5 4 4 4 5 5 5 6 7 6 7 7 7 8 8 8 6 4 4 6 7 5 5 5 4
11 11 11 10 10 11 10 8 7 8 7 7 8 8 7 6 6 6 5 5 4 4 3 4 4 3 3 4 5 4 3 3 4 3 1 3 2 2 2 3 3 3 4 5 5 5 4 4 4 5 5 5 6 8 9 8 8 6 4 6 6 7 6 6 6 6 6 7 6 6 7 8 7 6 7 6 5 6 6 6 7 6 7 8 8
12 11 10 9 9 10 11 11 11 9 9 8 9 8 7 8 8 7 6 7 6 5 6 6 5 4 5 7 7 6 5 8 5 3 5 4 2 2 1 1 2 2 3 3 4 4 4 4 3 3 4 4 4 5 6 8 9 9 8 9 10 10 7 5 5 5 6 6 6 7 7 7 7 5 5 5 5 6 6 6 7 8 8 9 8
11 11 9 10 10 9 10 10 10 10 9 8 8 8 8 9 8 8 9 7 7 8 7 8 8 7 7 8 8 7 6 10 9 6 3 4 4 4 3 4 3 3 2 1 2 1 1 1 1 1 1 1 3 4 5 6 6 5 4 6 8 9 9 6 6 4 5 7 7 7 7 6 6 6 5 4 3 5 5 6 6 8 9 9 9
12 11 10 10 10 9 11 12 11 10 9 9 9 10 10 9 8 7 6 8 8 8 9 9 9 9 8 8 8 8 8 9 9 8 6 3 4 5 3 3 3 3 3 2 2 1 1 0 1 1 1 2 3 4 4 3 3 5 5 6 6 7 7 5 4 3 4 6 7 8 6 6 7 3 3 3 4 6 5 7 6 7 9 7 1
12 10 10 9 10 10 11 11 11 9 9 8 9 10 10 9 9 8 8 8 9 8 8 9 8 7 7 6 7 8 8 11 11 11 9 6 1 2 3 3 2 3 2 2 2 2 3 3 3 3 3 3 3 3 4 4 3 4 5 6 6 5 5 6 7 6 6 5 6 6 1 2 2 2 2 3 5 4 3 3 2 2 2 5 2
11 9 9 10 10 8 9 10 10 10 10 10 10 11 10 9 9 7 7 8 7 7 8 8 8 8 7 7 7 8 8 13 13 13 12 11 8 1 2 2 3 2 3 2 2 2 2 2 3 4 4 5 6 9 7 5 5 6 6 6 5 3 3 1 3 4 4 5 5 5 4 4 4 4 4 4 3 3 3 3 3 4 3 5 6
12 10 9 10 10 8 8 9 9 9 9 11 11 9 9 9 8 6 8 8 8 8 8 7 6 7 8 7 7 7 8 12 13 13 13 13 8 5 4 3 3 3 3 2 1 1 1 1 1 2 2 3 4 8 8 6 6 7 7 8 6 5 6 5 6 4 6 7 7 5 4 7 11 11 10 11 9 6 5 4 4 5 7 8 7
11 11 10 9 9 7 8 8 9 8 8 8 7 6 6 6 6 5 8 7 7 6 6 6 6 6 7 8 7 6 7 10 13 13 14 14 9 5 4 4 4 4 3 2 2 1 2 2 4 3 3 2 6 6 7 7 6 7 7 8 8 8 7 5 4 3 3 3 6 7 7 8 8 8 9 11 12 10 8 9 9 8 10 11 9
9 10 9 9 8 8 9 9 9 9 9 6 5 6 5 5 4 4 5 6 6 6 6 6 6 6 6 6 9 7 6 8 12 12 13 14 10 5 5 3 4 4 4 3 2 1 1 3 2 3 4 6 8 2 5 8 6 7 7 7 8 9 9 7 7 7 5 5 4 3 2 3 4 5 5 9 12 13 11 10 7 10 11 10 7
7 7 8 8 7 8 8 9 8 8 8 7 6 5 4 4 5 5 6 5 5 5 6 4 4 4 3 5 5 6 6 6 8 11 12 13 13 7 5 4 4 4 3 4 4 2 2 1 5 6 3 5 7 5 4 8 8 8 8 9 10 10 8 6 8 8 8 8 7 6 6 5 5 5 4 6 7 10 9 8 8 9 9 7 7
8 8 8 9 9 8 8 7 8 7 6 5 4 4 3 4 4 5 5 4 5 6 6 2 2 2 3 4 4 5 5 6 7 9 9 10 11 10 4 5 4 4 4 4 3 4 4 3 3 6 7 6 7 6 7 8 9 9 9 10 11 8 5 7 7 9 8 8 6 5 4 4 5 5 5 6 8 8 7 6 6 7 7 7 6
8 9 10 10 10 9 9 8 7 6 6 5 5 6 5 5 5 5 4 4 5 5 4 3 2 2 2 3 3 3 3 5 5 5 7 6 6 6 4 3 3 4 4 3 3 3 3 3 3 6 11 11 11 9 7 7 10 8 10 13 12 9 7 8 5 6 7 7 7 7 6 6 6 6 6 6 6 6 5 4 3 2 2 1 2
8 9 9 9 9 9 8 9 7 6 7 7 7 7 6 6 6 6 5 5 5 5 4 3 2 2 3 2 2 1 2 2 4 5 6 6 6 4 3 3 4 4 4 4 4 4 3 4 4 9 11 11 11 11 9 9 7 8 11 12 13 13 8 7 6 6 7 8 8 8 9 8 8 7 7 7 5 5 4 4 4 5 5 5 6
8 9 8 8 8 8 8 8 7 7 7 7 7 7 7 5 5 5 5 4 3 3 2 3 3 3 2 2 3 3 3 3 2 2 5 5 4 4 4 4 4 4 4 5 5 5 4 4 6 10 11 10 10 10 11 9 8 9 10 11 12 11 8 10 8 8 7 7 8 9 8 7 7 7 7 6 6 6 6 6 6 7 7 7 8
8 8 8 8 7 7 7 7 7 7 6 7 7 6 5 5 4 4 3 3 3 2 2 2 2 2 3 4 4 4 5 5 5 3 4 5 4 1 1 3 4 3 5 5 5 5 7 10 11 11 11 10 10 9 8 9 11 11 11 11 9 5 8 9 11 8 9 9 9 8 7 7 7 6 6 7 7 7 7 6 6 7 8 8 8
8 8 8 7 7 7 7 7 7 6 5 5 5 4 4 3 3 3 3 2 2 2 2 2 2 2 3 3 4 4 5 5 5 6 6 5 5 4 4 3 3 4 7 6 7 9 9 9 12 12 11 8 5 5 6 7 7 8 10 9 6 7 7 8 10 9 9 8 8 9 8 7 7 7 8 9 9 8 7 8 8 8 7 8 8
7 7 7 7 6 7 7 6 5 5 5 4 4 4 4 3 2 2 2 2 3 3 3 4 4 4 4 4 4 4 4 4 4 5 5 6 7 8 8 8 7 4 2 2 3 4 5 7 7 10 11 13 12 9 7 7 7 6 5 5 7 8 8 9 9 10 9 8 6 2 4 5 7 7 7 8 7 6 6 7 7 7 6 6 6
6 6 6 5 5 5 5 3 4 5 5 5 5 5 5 4 4 4 4 3 3 3 4 4 4 5 5 5 5 5 6 6 6 7 8 8 9 9 9 8 8 7 7 7 8 8 8 7 8 6 6 6 6 5 4 4 5 7 7 7 7 7 9 9 7 8 9 8 3 4 5 6 8 8 7 7 7 6 6 7 7 6 5 5 5
5 5 4 5 5 4 4 5 5 4 4 5 6 5 5 5 4 4 4 3 4 4 3 3 4 4 4 4 5 5 5 6 6 9 10 10 8 10 9 8 8 9 8 9 11 10 7 7 6 6 6 4 4 4 5 5 4 6 7 7 6 7 7 7 8 10 8 6 6 6 6 6 6 6 5 6 6 6 5 7 8 8 6 4 4
4 4 4 4 5 5 5 5 5 5 5 5 5 4 2 2 5 4 4 5 3 4 4 3 5 5 5 4 4 5 6 7 12 15 14 13 13 10 10 11 12 10 12 13 9 7 6 5 5 4 4 4 4 4 3 3 5 6 4 5 4 6 6 6 7 7 4 5 5 5 6 6 7 9 9 7 7 6 5 6 7 7 6 4 4
4 3 3 5 4 4 4 4 5 5 4 4 4 3 3 4 2 3 5 6 6 6 4 6 7 6 5 5 4 3 8 11 13 12 13 13 12 12 12 12 12 12 9 6 5 4 5 5 5 4 4 4 5 5 5 5 4 4 4 4 4 5 5 6 6 2 2 2 2 3 5 7 6 6 7 5 6 6 5 4 6 6 6 5 4
3 3 3 4 2 2 4 4 5 5 5 4 3 4 3 3 3 5 1 4 5 5 6 5 5 5 5 6 6 5 4 7 9 11 12 12 12 12 12 12 12 10 7 3 3 5 4 5 6 6 6 6 6 6 6 6 5 3 3 4 3 3 3 4 4 3 2 3 4 4 5 6 6 6 6 6 6 6 7 5 4 3 4 5 4
3 3 3 3 3 2 2 4 3 4 4 4 3 3 4 4 5 4 3 2 3 5 4 4 4 5 5 4 6 7 8 10 10 11 11 11 12 11 11 11 10 6 2 1 1 3 4 5 5 7 6 6 6 7 7 8 7 5 3 3 3 2 1 1 1 3 2 2 3 5 6 6 7 7 6 5 5 7 6 5 4 4 5 4 4
3 3 3 3 3 3 4 5 4 3 2 2 2 2 2 2 4 4 4 2 3 4 7 7 3 5 3 3 4 5 6 7 7 7 7 9 9 10 9 6 7 7 5 1 1 2 4 5 6 7 8 8 7 7 6 6 5 4 3 4 3 1 1 2 3 2 3 3 3 3 4 5 6 9 8 7 6 6 6 5 5 4 4 4 4
3 2 2 0 3 3 3 4 3 3 3 2 2 2 2 2 2 3 4 4 3 4 4 3 4 4 4 3 5 6 6 7 6 6 7 6 6 10 10 5 1 0 2 3 4 4 4 5 5 6 7 6 6 6 6 8 6 4 3 2 3 3 2 2 2 3 3 3 4 4 5 5 4 3 5 6 6 5 5 5 4 3 3 3 3
2 2 3 2 2 2 3 4 4 4 3 3 2 2 2 1 2 2 2 2 3 4 4 4 4 5 5 4 1 4 6 7 6 6 6 4 6 8 3 5 3 4 4 5 6 6 5 5 5 6 6 6 5 5 6 5 6 5 5 3 2 3 3 3 4 5 5 6 6 7 8 7 5 5 5 5 5 5 4 3 3 3 3 3 2
1 2 2 3 2 3 3 4 4 3 3 2 2 1 1 1 2 2 3 3 3 3 4 5 5 4 5 4 8 7 5 6 6 6 6 4 5 4 4 5 7 7 7 7 7 7 7 7 6 6 6 6 6 6 4 4 5 5 2 2 1 2 2 3 4 4 5 6 6 6 5 6 5 6 7 6 5 5 5 4 4 3 3 3 3
1 2 3 2 2 2 3 4 3 1 1 2 1 1 2 2 2 3 3 2 3 3 5 5 5 6 5 6 7 5 8 7 6 5 2 4 4 4 5 5 7 7 7 8 8 8 8 8 7 7 7 6 6 6 5 3 2 1 0 1 1 2 6 5 4 4 4 5 6 6 6 7 7 7 6 7 7 6 5 4 4 4 3 2 3
2 4 3 1 1 2 2 3 3 5 4 3 2 2 2 3 3 3 3 2 3 3 5 6 5 5 5 6 6 8 7 4 5 5 4 4 3 4 5 5 6 7 7 8 8 8 8 8 8 7 7 7 6 6 4 2 1 0 0 2 2 4 5 5 5 3 4 5 5 4 4 4 4 4 4 5 5 5 5 4 4 4 5 4 4
1 2 3 2 1 1 2 2 2 3 4 3 3 2 2 3 2 2 2 2 3 3 5 5 5 6 6 7 7 7 5 4 4 4 4 4 4 4 5 5 5 6 8 8 8 8 9 8 8 7 7 7 6 5 4 1 0 1 1 2 3 5 5 6 6 4 4 4 4 3 4 4 4 4 5 5 5 5 5 4 3 3 4 3 3
1 1 2 1 2 1 0 1 2 3 3 3 2 1 2 3 2 1 2 2 2 3 5 6 5 5 5 8 10 8 4 4 5 4 4 4 4 5 5 5 6 7 7 7 8 8 8 7 7 7 6 4 3 3 3 2 2 1 2 3 5 6 7 7 6 5 5 5 5 4 4 4 4 4 5 4 5 5 3 3 4 4 4 3 3
2 1 1 1 1 1 1 1 2 1 2 2 2 2 1 2 2 2 2 2 3 4 4 5 5 4 6 11 11 10 5 4 4 4 5 5 5 6 5 5 6 6 6 6 7 7 6 6 6 6 6 6 4 3 3 3 4 5 5 5 6 7 7 7 5 5 6 5 4 4 4 3 3 4 4 6 4 3 4 5 5 4 3 3 2
2 1 1 1 0 1 2 2 2 2 1 2 2 1 1 2 2 2 2 2 4 4 4 5 5 5 5 7 8 7 5 5 5 6 6 6 6 5 5 5 5 6 6 6 7 6 5 6 6 6 7 8 7 5 5 5 5 6 5 5 6 6 7 6 6 6 4 5 4 4 4 3 3 3 4 3 3 3 3 4 3 3 2 2 2
3 2 2 1 1 0 1 2 1 1 1 1 1 1 1 2 2 2 2 2 3 3 4 4 4 5 5 6 7 6 7 6 6 6 6 6 6 5 5 5 5 5 6 6 6 6 5 5 6 6 7 7 8 8 7 6 6 7 7 7 7 7 6 6 5 4 3 4 4 3 3 3 3 3 3 3 3 3 4 4 3 3 2 2 2
3 2 2 1 1 1 1 1 1 1 1 0 0 1 1 1 2 2 2 2 3 3 3 3 4 4 5 5 6 6 6 6 6 6 6 5 5 5 5 4 4 5 5 6 6 6 6 6 6 6 7 7 6 6 6 7 6 5 4 4 5 5 5 4 3 3 3 3 3 3 3 3 3 3 3 3 3 4 3 2 2 3 3 2 2
3 2 2 1 1 1 1 1 1 1 1 1 1 1 1 2 2 2 2 2 2 2 3 3 3 4 4 4 5 6 5 5 5 5 6 5 5 4 4 4 5 5 5 5 5 6 6 6 6 6 7 6 6 6 7 6 5 6 6 5 5 5 4 3 2 2 2 2 2 2 2 3 2 2 2 2 3 2 2 2 2 2 2 2 2
3 2 2 2 2 2 1 1 1 2 1 1 1 1 1 2 2 2 3 3 3 3 3 4 3 4 4 4 4 4 5 5 5 5 5 5 5 5 5 5 5 5 5 5 5 5 6 7 7 6 6 6 6 7 6 6 5 4 4 4 3 3 2 2 2 2 2 1 2 2 3 3 3 3 1 1 2 2 2 2 2 2 2 2 2
3 3 2 2 2 2 2 1 2 1 1 1 1 1 2 2 2 2 2 2 3 3 3 3 4 4 4 4 4 3 4 3 4 4 4 4 4 5 5 4 4 4 4 5 5 5 5 5 6 5 5 6 6 5 4 3 3 4 4 4 4 4 3 2 2 2 2 1 1 2 3 3 2 2 2 1 2 2 2 3 3 3 2 2 2
3 3 3 2 2 2 2 2 2 1 1 1 2 2 3 2 2 2 2 3 3 3 2 3 3 3 3 3 3 3 3 3 4 3 3 3 3 3 3 4 4 5 4 4 5 5 5 5 6 5 5 5 5 5 4 5 4 4 4 4 5 7 6 5 2 2 3 2 2 2 2 2 2 2 2 2 2 2 3 3 3 3 3 2 2
3 3 3 3 2 2 2 2 2 1 2 2 3 3 2 3 2 2 3 3 3 3 3 3 3 3 3 3 3 3 3 3 3 3 3 2 3 2 3 4 4 4 4 4 4 4 4 4 4 4 4 4 4 4 4 4 4 4 4 5 6 7 7 7 6 3 1 2 1 2 2 2 2 2 2 2 1 1 1 2 2 2 2 1 2
3 3 3 3 2 2 2 2 2 2 2 2 2 2 2 2 2 3 3 3 2 3 3 3 2 2 2 2 3 3 3 3 3 3 3 3 2 2 3 4 4 4 4 4 4 4 4 4 4 4 4 4 3 3 3 3 3 4 5 6 6 6 5 4 4 5 4 2 2 2 2 2 2 2 1 1 0 0 1 0 0 1 1 2 2
Wind_Direction
168 147 147 156 158 160 160 155 143 130 136 143 143 145 144 146 151 147 138 153 151 155 154 149 145 144 144 145 144 143 145 148 153 155 161 158 165 149 151 170 169 156 156 160 173 186 193 190 170 164 162 172 174 174 180 174 168 170 169 173 168 171 189 191 186 133 152 146 169 177 167 183 191 202 197 197 194 197 218 219 202 215 217 217 164
166 156 165 161 159 151 154 145 139 138 141 144 146 149 151 154 147 143 155 154 164 156 153 139 143 145 140 140 141 138 144 146 159 169 167 163 155 151 156 161 164 149 159 161 160 173 176 187 174 169 181 186 172 182 177 175 179 181 181 187 185 179 199 201 196 173 165 169 186 173 167 196 203 193 205 199 202 204 206 203 203 220 223 217 215
156 159 157 148 144 143 143 139 134 137 140 146 153 155 152 144 149 153 151 152 156 152 146 147 144 144 139 140 142 140 144 144 158 169 165 171 163 155 153 156 161 160 165 160 164 161 171 173 171 167 173 182 173 180 170 183 190 192 188 191 191 183 186 208 191 186 174 178 183 181 186 185 214 191 203 205 208 205 215 214 212 201 218 222 227
157 153 146 146 145 147 147 140 139 142 146 153 157 156 149 147 150 149 152 155 149 128 133 139 140 145 143 144 148 148 147 149 152 167 165 163 159 154 153 152 151 157 159 159 159 168 163 157 154 168 175 181 176 173 177 179 191 196 191 189 194 182 185 194 228 237 191 177 185 201 184 183 204 202 190 198 196 209 225 215 211 220 213 205 212
155 154 154 154 156 152 145 144 140 142 144 151 158 153 150 146 150 151 152 150 139 137 134 140 144 152 156 163 158 159 160 158 158 154 149 155 152 150 154 147 141 141 138 130 143 151 149 148 142 162 173 180 174 181 180 184 193 195 200 195 202 190 185 202 217 212 200 213 182 197 179 197 202 197 195 201 195 204 202 219 217 206 177 166 146
152 149 152 147 144 136 132 127 126 124 126 136 147 148 143 145 145 148 152 142 139 139 141 143 153 152 156 157 160 156 153 156 150 145 145 153 151 143 139 142 142 137 141 150 158 160 166 157 157 168 177 187 185 185 185 187 189 198 202 206 202 184 192 197 212 214 228 231 223 176 196 199 198 202 200 211 212 205 201 188 183 187 170 163 148
29 112 130 130 130 126 125 126 123 114 108 109 119 132 131 132 143 143 143 139 139 137 133 136 133 139 135 144 153 151 146 143 137 138 148 155 159 150 148 149 148 141 143 152 151 154 162 158 164 172 180 187 183 186 185 185 191 202 205 200 207 194 199 212 208 211 219 228 220 225 203 197 206 201 188 200 216 225 218 201 202 180 186 177 162
92 35 36 44 49 51 53 74 92 103 109 110 111 113 115 118 121 125 136 138 141 146 148 142 133 134 135 143 139 147 152 156 156 165 169 167 167 166 163 160 154 149 140 138 139 134 121 142 167 172 179 177 184 177 184 193 192 204 197 199 201 204 216 208 208 215 215 219 228 213 215 199 189 212 154 187 213 223 227 226 221 187 185 182 179
106 105 97 97 96 94 76 52 52 71 97 97 98 103 109 114 121 122 122 119 112 122 133 136 136 136 140 146 153 154 166 168 173 181 183 184 185 180 178 177 174 165 157 148 142 152 155 152 170 164 149 122 109 125 144 148 189 196 181 190 189 199 204 204 207 212 216 222 221 213 209 212 212 194 197 203 211 227 205 203 228 202 179 176 179
88 84 85 84 87 95 101 97 94 81 53 81 80 72 84 91 95 97 95 101 106 110 115 113 119 130 144 132 99 65 49 32 20 1 349 301 203 198 183 190 191 185 178 169 167 179 181 181 168 144 156 160 159 161 166 181 214 272 193 182 189 193 198 204 209 210 216 219 227 219 219 224 214 205 213 216 215 197 177 195 215 184 179 191 179
64 66 69 77 82 81 74 65 57 52 53 54 66 66 61 61 64 65 63 60 66 71 85 96 96 103 100 94 92 92 70 43 20 110 110 352 303 218 208 197 198 202 193 187 194 189 189 189 176 166 175 167 174 173 179 184 193 200 225 212 208 196 195 205 212 206 212 223 225 224 233 238 227 210 221 220 200 217 220 205 215 182 198 203 214
66 61 63 63 62 66 71 68 65 63 59 48 59 61 58 57 54 50 54 58 56 65 65 65 64 71 88 88 79 71 60 12 359 139 164 163 182 178 177 223 228 240 239 224 209 194 192 188 188 177 201 197 195 181 192 196 193 197 201 206 218 236 244 235 217 208 216 230 227 227 233 236 248 214 221 214 218 214 221 216 211 203 208 218 226
68 62 55 65 62 64 69 70 67 62 57 55 55 54 54 55 53 54 54 51 54 56 57 60 58 54 64 74 70 60 56 12 5 22 81 164 184 211 170 170 183 187 207 255 312 341 24 241 210 221 227 94 245 224 209 197 204 200 201 212 232 232 245 275 315 290 222 231 243 240 228 241 240 241 214 219 222 233 205 217 214 216 222 228 231
66 65 60 64 66 66 73 74 70 67 65 66 63 66 61 57 51 52 59 57 56 54 52 55 63 65 62 69 69 60 48 15 14 11 15 51 172 212 141 163 163 160 161 162 167 169 163 240 261 235 170 212 243 251 253 254 198 195 203 208 211 204 217 227 234 274 276 239 235 242 235 210 246 291 101 180 210 236 214 229 216 219 222 233 72
63 62 60 62 69 72 75 76 76 70 66 69 71 68 66 63 57 49 51 54 56 54 49 56 53 58 58 63 71 60 44 16 24 24 17 4 14 167 107 117 128 120 128 141 169 177 179 187 206 221 207 216 212 205 234 229 229 230 233 226 221 207 196 196 205 208 209 221 232 240 212 157 214 245 204 187 232 273 298 317 305 256 85 80 101
57 49 54 53 50 46 66 75 71 72 69 63 63 67 67 65 65 60 63 62 56 57 55 55 56 56 52 54 64 63 45 24 21 23 17 3 318 37 80 100 104 113 115 123 135 156 186 204 219 219 218 223 183 178 209 216 211 225 230 232 231 213 208 117 309 283 252 223 214 215 215 194 184 204 189 193 191 161 130 117 123 131 169 209 207
64 54 50 59 58 46 54 66 69 65 66 67 62 59 67 67 65 66 64 64 67 62 59 56 52 52 49 47 52 59 48 25 20 21 19 5 359 34 15 30 41 45 59 63 94 113 160 204 238 261 243 262 132 173 195 208 224 221 227 227 225 214 220 189 192 231 280 293 294 284 245 197 200 203 192 186 189 173 149 163 181 168 194 218 207
72 69 61 53 65 57 59 69 74 71 71 71 75 67 61 69 67 62 80 75 68 65 63 61 53 46 45 42 30 48 53 35 23 20 17 9 354 21 20 25 33 22 30 48 24 26 61 36 311 305 306 332 100 191 184 201 244 240 235 233 228 223 222 191 184 161 138 228 234 238 238 247 246 237 215 198 185 170 177 200 203 176 209 217 214
65 72 73 71 67 62 60 65 69 68 69 61 53 59 55 65 75 67 73 73 74 69 59 59 53 46 41 41 25 28 32 40 29 19 16 13 0 9 9 15 13 20 357 356 8 5 58 154 171 317 345 344 354 340 202 215 251 249 249 249 245 241 238 188 190 189 193 195 210 202 220 222 232 228 211 195 185 190 204 222 199 190 214 212 205
72 78 77 71 68 67 65 66 70 76 76 62 50 43 37 41 56 66 70 83 80 66 62 47 55 59 51 46 39 29 27 25 35 22 19 11 5 351 20 8 7 356 350 346 331 345 4 26 133 115 19 340 325 310 259 229 247 254 255 253 251 245 239 212 198 212 201 202 209 200 216 186 194 204 188 176 192 199 211 224 212 207 219 208 197
65 63 64 62 56 53 52 54 63 64 67 79 83 75 56 61 70 77 79 65 75 80 74 50 43 58 52 54 46 39 30 15 20 25 23 15 3 353 19 18 358 337 328 324 324 324 330 340 329 69 28 15 352 334 292 255 250 257 247 245 238 244 251 243 199 196 213 205 212 208 209 194 197 196 184 178 182 187 199 209 207 212 222 212 200
65 64 63 61 58 54 51 50 54 60 60 61 63 53 48 49 48 53 57 71 86 95 108 99 85 77 81 61 52 35 31 29 6 10 18 13 13 351 353 34 355 315 308 310 312 307 314 325 310 19 10 352 335 327 311 273 249 252 252 260 270 258 233 246 224 191 211 214 217 212 207 202 198 194 187 182 179 174 173 164 159 117 55 52 206
69 68 67 67 65 62 56 50 48 46 46 45 54 54 44 45 48 48 54 64 58 48 44 40 46 43 43 52 69 48 14 12 22 350 351 357 355 351 10 348 306 293 325 317 320 318 319 321 344 13 339 324 316 311 301 289 261 243 253 266 271 270 271 251 238 221 220 218 211 210 204 203 196 190 185 180 163 147 140 120 112 103 88 73 58
78 75 69 66 64 62 59 54 48 46 44 45 46 45 39 31 41 45 44 42 51 64 49 26 17 29 22 9 8 355 355 352 333 337 339 345 345 333 340 337 323 337 317 307 317 320 318 333 329 322 305 299 293 291 291 280 263 257 244 250 259 267 255 246 227 221 211 206 208 211 206 197 192 185 176 160 146 137 124 119 116 113 107 101 94
82 79 77 74 73 73 69 65 61 56 50 41 41 33 29 18 29 36 31 35 38 45 59 43 26 8 360 355 355 352 351 342 330 332 334 328 318 200 306 314 313 284 304 310 311 322 328 312 299 290 287 285 279 270 270 261 251 253 254 252 252 247 248 245 241 221 218 214 217 217 209 197 195 178 138 122 116 115 113 103 99 98 100 99 97
77 76 74 70 67 69 71 72 69 66 61 58 54 46 26 19 12 22 16 21 25 20 16 14 6 6 353 359 352 346 335 329 330 334 335 338 325 317 301 240 203 238 246 266 284 282 280 287 292 291 286 277 286 310 315 302 298 265 252 253 254 251 243 241 243 237 229 225 215 220 218 183 179 143 131 138 145 146 137 133 131 129 132 129 121
85 80 75 70 62 56 54 52 58 60 50 46 49 42 37 31 34 30 25 19 19 10 7 3 356 359 353 352 348 335 326 323 331 339 343 342 338 335 334 335 333 318 274 266 254 282 303 306 300 288 275 279 272 252 252 243 243 245 235 224 240 249 247 236 231 236 232 237 231 143 79 89 82 108 148 153 146 137 135 136 131 132 138 136 129
92 88 82 75 66 58 60 32 15 40 32 30 27 26 30 29 32 34 22 19 6 9 359 357 357 354 349 342 339 332 332 336 347 353 347 342 335 331 332 331 336 339 331 335 337 328 318 303 283 283 290 288 278 295 309 307 296 295 294 286 268 254 249 247 252 244 238 236 187 139 132 135 148 159 160 148 139 136 136 128 124 120 126 132 130
89 84 77 68 61 46 39 36 32 24 30 32 37 27 13 15 22 40 54 23 12 358 358 354 356 355 336 329 328 328 327 333 350 357 328 319 314 319 322 324 327 321 322 338 324 317 314 305 305 303 300 297 293 295 309 311 312 304 298 297 283 270 257 239 231 232 227 204 187 168 149 137 137 137 138 129 136 140 133 125 134 137 144 154 140
94 80 66 59 51 43 36 32 22 23 25 31 30 40 79 320 336 349 28 45 12 315 303 328 345 339 322 318 327 318 326 326 329 319 312 315 312 300 288 286 286 286 297 308 306 303 296 294 292 295 298 302 300 299 299 308 312 310 304 289 278 274 262 244 236 236 200 191 167 150 154 149 148 159 157 144 136 135 136 137 134 134 139 151 148
84 83 73 62 47 39 43 36 40 40 41 40 48 45 55 112 170 277 280 298 317 328 303 271 283 288 297 308 319 227 270 288 294 301 308 308 307 303 301 299 297 294 295 307 294 276 285 291 297 299 296 296 293 295 303 303 300 303 299 299 286 270 256 254 243 209 160 151 148 140 138 149 153 144 131 121 110 111 110 108 119 139 143 147 146
95 92 84 86 111 54 51 56 51 50 43 36 35 38 40 45 104 149 239 316 313 317 317 315 316 312 286 271 289 311 276 269 285 298 301 299 292 292 291 292 294 296 309 252 263 285 285 294 299 299 302 299 297 300 300 298 297 291 288 292 282 267 255 256 243 187 167 151 155 152 151 147 145 140 131 126 125 125 132 130 135 131 124 120 120
124 126 127 131 124 143 68 60 56 46 39 35 32 20 38 39 40 48 119 122 328 311 305 289 297 309 303 287 256 263 283 298 299 296 291 290 290 289 291 287 282 278 214 190 263 293 305 303 302 300 297 292 295 299 299 296 293 288 267 268 272 275 273 347 126 197 172 163 147 153 155 143 136 131 125 124 125 129 133 133 143 140 132 128 130
139 135 122 106 86 73 52 50 48 41 31 28 20 12 24 26 23 34 34 81 157 205 225 234 257 297 313 315 304 308 299 295 295 289 276 271 277 279 275 275 260 247 229 308 285 291 294 294 297 300 299 297 298 298 299 300 298 286 273 253 244 198 165 152 165 151 142 148 144 115 117 131 136 134 137 136 131 137 141 141 142 151 146 142 142
138 125 218 237 78 71 49 42 32 19 22 23 34 21 37 20 24 26 31 34 26 13 18 21 117 94 351 347 356 325 321 322 315 299 297 314 314 297 276 267 279 212 234 320 329 311 295 283 281 284 294 298 297 300 301 305 304 292 275 246 203 170 155 155 132 118 115 107 106 110 110 102 102 97 109 121 130 135 136 137 145 144 136 133 139
122 102 126 148 79 57 35 36 24 20 10 19 12 18 11 26 37 51 52 41 20 12 6 18 359 356 314 234 302 324 333 331 313 305 315 319 314 305 358 10 2 4 355 347 341 334 319 313 308 300 293 287 287 292 298 303 301 295 287 248 205 180 171 150 132 134 127 124 122 122 121 113 109 104 88 76 79 93 102 118 129 130 128 138 151
114 88 71 68 57 42 32 35 33 20 5 351 353 34 54 63 56 51 50 37 27 12 11 15 16 22 358 17 2 336 337 310 297 298 309 337 341 355 22 14 11 2 3 354 346 338 332 333 330 320 315 309 305 301 302 299 304 299 270 248 192 167 159 151 142 135 136 132 133 127 116 118 109 120 127 122 126 130 135 143 139 131 139 128 149
93 66 66 64 69 44 29 29 30 323 39 12 30 44 78 77 67 57 45 39 26 25 25 32 24 22 16 359 340 347 326 298 251 238 320 18 15 13 14 11 4 2 350 352 348 341 337 336 337 332 327 320 314 316 312 302 293 276 244 160 140 105 99 103 90 92 109 103 111 117 124 135 143 143 141 141 139 134 130 136 147 146 141 155 185
135 94 91 131 28 18 33 22 29 16 22 18 37 49 61 63 56 41 32 28 32 32 31 26 26 23 8 348 340 336 328 12 18 19 5 7 14 11 9 6 1 358 352 346 346 342 342 341 342 338 335 335 336 336 330 321 301 257 156 151 129 123 119 114 101 93 99 106 108 117 122 125 124 120 115 111 117 125 135 138 149 153 158 162 171
137 147 127 226 209 90 24 26 20 26 16 10 23 31 61 53 43 34 25 26 26 22 20 19 23 21 12 3 350 341 351 1 8 7 360 356 1 3 8 6 359 358 355 351 348 347 344 347 346 346 347 350 348 349 348 354 36 93 143 139 123 108 100 99 97 96 93 86 90 88 92 91 89 95 104 114 123 133 140 146 138 144 159 167 165
150 119 125 126 21 334 98 3 26 21 20 8 358 24 58 59 45 23 32 32 24 20 20 21 21 21 17 352 342 333 338 1 358 3 1 352 355 359 6 7 4 2 357 354 350 350 351 351 357 2 2 2 7 24 34 55 73 97 112 106 98 99 96 85 85 86 88 87 86 80 78 79 89 103 113 116 117 128 127 132 145 152 156 159 165
169 165 160 138 186 309 340 352 20 29 12 18 10 15 39 60 49 36 30 30 27 16 21 22 19 6 4 353 353 335 347 30 11 8 9 9 8 10 9 10 13 10 360 357 357 356 360 8 14 18 20 15 14 39 61 73 83 90 88 85 91 91 88 89 84 76 74 75 70 75 83 99 109 110 112 126 136 136 142 153 150 152 152 149 146
167 163 105 119 359 360 342 360 332 346 6 11 19 10 3 22 52 50 47 34 24 20 22 20 18 8 2 3 341 327 31 31 26 20 21 15 14 13 16 18 16 14 7 3 7 8 16 26 33 35 34 32 25 25 44 58 70 82 85 83 79 76 77 69 79 71 59 72 78 74 84 105 117 123 133 139 138 145 150 149 156 152 153 149 149
163 154 120 94 66 69 336 325 342 5 17 29 341 3 27 62 68 49 45 40 33 33 28 24 17 13 9 12 16 28 32 27 27 24 22 20 20 18 21 22 18 18 19 18 10 8 21 34 42 39 37 37 38 39 44 48 53 63 66 65 63 66 77 83 85 87 99 105 106 113 122 123 124 129 134 144 154 153 158 158 146 143 143 135 123
168 161 146 141 81 22 54 18 5 55 76 231 257 76 100 81 67 60 53 51 50 41 34 29 27 21 19 22 25 25 28 27 25 24 22 21 21 22 21 24 23 27 30 30 24 19 23 28 38 44 45 45 37 33 28 32 32 40 57 82 98 93 88 85 84 96 111 119 128 126 129 135 137 141 147 156 158 155 147 149 143 149 146 130 131
167 157 143 121 110 92 90 80 52 46 49 35 17 66 98 86 72 58 58 60 53 37 37 35 42 37 29 29 31 32 28 27 28 26 24 21 20 20 26 29 32 34 36 35 27 28 29 33 37 40 46 42 34 43 45 38 37 44 42 43 53 63 64 67 76 88 98 118 131 135 127 129 135 135 96 147 148 138 110 118 148 159 126 114 75
167 165 142 130 107 102 95 99 62 32 27 26 16 46 98 95 81 79 69 54 52 37 37 39 43 46 40 37 36 34 31 32 32 31 28 24 23 28 31 32 36 37 33 33 28 32 40 43 44 45 44 45 47 48 49 54 50 43 38 42 52 57 64 75 81 98 117 118 125 142 143 146 134 137 118 114 119 111 127 133 124 118 134 123 122
178 172 150 138 136 131 127 139 108 180 59 92 87 88 103 107 106 95 86 86 79 62 48 45 44 46 45 45 42 46 42 39 38 37 34 31 32 33 35 27 28 31 36 30 27 23 25 27 25 22 26 33 36 39 39 40 50 48 53 49 38 34 36 42 96 93 109 131 139 135 138 140 134 127 120 126 117 114 113 117 124 122 120 120 112
192 180 164 166 143 144 137 125 106 95 76 98 118 134 124 116 108 103 100 90 83 79 63 57 52 52 52 46 47 54 55 56 52 46 41 36 35 34 35 32 27 26 32 34 26 22 23 28 22 23 22 25 37 41 41 37 39 46 47 49 49 46 38 32 66 88 108 126 128 119 109 107 107 102 99 99 108 110 95 97 96 96 95 84 79
197 183 176 158 159 144 141 136 119 113 106 126 132 125 124 115 113 107 103 101 103 94 80 63 61 56 49 49 47 47 49 55 56 52 49 43 39 31 37 36 33 27 27 30 26 21 24 28 26 27 28 29 33 38 41 46 48 53 56 53 52 63 69 74 72 72 161 113 94 90 90 89 84 76 78 80 91 86 132 125 116 101 83 62 68
194 193 185 177 160 155 160 162 148 132 129 135 149 142 132 126 119 116 113 111 110 94 81 72 70 74 73 62 53 47 47 49 51 53 52 52 50 36 36 39 33 33 29 19 22 29 26 19 26 23 28 30 38 41 47 44 55 53 47 54 58 58 54 54 77 60 39 63 96 109 107 93 92 94 91 90 107 90 42 33 207 267 14 62 58